| time (UTC) | temp C | wind direction | speed KPH | gust KPH | rain 1hr cm | rain 24hr cm | rain mn cm | humidity % | barometer mb |
| 20260506135836 | 13 | 338 | 1.6 | 3.2 | 0.00 | 0.00 | 0.00 | 91 | 1006.9 |
| 20260506135333 | 13 | 332 | 1.6 | 1.6 | 0.00 | 0.00 | 0.00 | 92 | 1006.8 |
| 20260506134829 | 13 | 326 | 0.0 | 1.6 | 0.00 | 0.00 | 0.00 | 92 | 1007.0 |
| 20260506134325 | 12 | 320 | 4.8 | 4.8 | 0.00 | 0.00 | 0.00 | 92 | 1007.0 |
| 20260506133823 | 12 | 27 | 4.8 | 4.8 | 0.00 | 0.00 | 0.00 | 93 | 1006.9 |
| 20260506133319 | 12 | 37 | 3.2 | 4.8 | 0.00 | 0.00 | 0.00 | 93 | 1007.1 |
| 20260506132816 | 12 | 43 | 8.0 | 9.7 | 0.00 | 0.00 | 0.00 | 93 | 1006.8 |
| 20260506132313 | 12 | 341 | 3.2 | 4.8 | 0.00 | 0.00 | 0.00 | 92 | 1006.9 |
| 20260506131811 | 12 | 311 | 4.8 | 4.8 | 0.00 | 0.00 | 0.00 | 92 | 1006.9 |
| 20260506131307 | 12 | 317 | 0.0 | 1.6 | 0.00 | 0.00 | 0.00 | 91 | 1006.9 |
| 20260506130804 | 12 | 321 | 0.0 | 0.0 | 0.00 | 0.00 | 0.00 | 92 | 1006.8 |
| 20260506130301 | 12 | 288 | 3.2 | 3.2 | 0.00 | 0.00 | 0.00 | 92 | 1006.8 |
| 20260506125759 | 12 | 16 | 1.6 | 3.2 | 0.00 | 0.00 | 0.00 | 92 | 1006.8 |
| 20260506125257 | 12 | 290 | 4.8 | 4.8 | 0.00 | 0.00 | 0.00 | 92 | 1006.8 |
| 20260506124755 | 12 | 44 | 3.2 | 8.0 | 0.00 | 0.00 | 0.00 | 92 | 1006.9 |
| 20260506124252 | 12 | 306 | 1.6 | 1.6 | 0.00 | 0.00 | 0.00 | 92 | 1006.9 |
| 20260506123749 | 12 | 12 | 6.4 | 9.7 | 0.00 | 0.00 | 0.00 | 92 | 1006.8 |
| 20260506123248 | 12 | 319 | 3.2 | 3.2 | 0.00 | 0.00 | 0.00 | 91 | 1006.7 |
| 20260506122744 | 12 | 299 | 1.6 | 1.6 | 0.00 | 0.00 | 0.00 | 92 | 1006.8 |
| 20260506122241 | 12 | 326 | 4.8 | 8.0 | 0.00 | 0.00 | 0.00 | 91 | 1006.8 |
| 20260506121740 | 12 | 311 | 1.6 | 1.6 | 0.00 | 0.00 | 0.00 | 91 | 1007.0 |
| 20260506121236 | 12 | 318 | 1.6 | 1.6 | 0.00 | 0.00 | 0.00 | 91 | 1006.9 |
| 20260506120733 | 12 | 321 | 0.0 | 0.0 | 0.00 | 0.00 | 0.00 | 91 | 1007.3 |
| 20260506120231 | 12 | 332 | 3.2 | 3.2 | 0.00 | 0.00 | 0.00 | 91 | 1007.1 |
| 20260506115729 | 12 | 317 | 1.6 | 1.6 | 0.00 | 0.00 | 0.00 | 92 | 1006.9 |
| 20260506115227 | 12 | 321 | 3.2 | 3.2 | 0.00 | 0.00 | 0.00 | 92 | 1007.1 |
| 20260506114724 | 12 | 329 | 1.6 | 1.6 | 0.00 | 0.00 | 0.00 | 91 | 1007.2 |
| 20260506114222 | 12 | 314 | 0.0 | 1.6 | 0.00 | 0.00 | 0.00 | 92 | 1007.2 |
| 20260506113720 | 12 | 4 | 0.0 | 1.6 | 0.00 | 0.00 | 0.00 | 92 | 1007.4 |
| 20260506113217 | 12 | 308 | 3.2 | 3.2 | 0.00 | 0.00 | 0.00 | 92 | 1007.4 |
| 20260506112713 | 12 | 323 | 0.0 | 0.0 | 0.00 | 0.00 | 0.00 | 92 | 1007.4 |
| 20260506112211 | 12 | 311 | 0.0 | 0.0 | 0.00 | 0.00 | 0.00 | 92 | 1007.5 |
| 20260506111708 | 12 | 305 | 0.0 | 1.6 | 0.00 | 0.00 | 0.00 | 92 | 1007.2 |
| 20260506111207 | 12 | 313 | 1.6 | 3.2 | 0.00 | 0.00 | 0.00 | 92 | 1007.4 |
| 20260506110703 | 12 | 324 | 1.6 | 1.6 | 0.00 | 0.00 | 0.00 | 92 | 1007.2 |
| 20260506110201 | 12 | 312 | 0.0 | 0.0 | 0.00 | 0.00 | 0.00 | 92 | 1007.1 |
| 20260506105657 | 12 | 305 | 1.6 | 1.6 | 0.00 | 0.00 | 0.00 | 92 | 1007.2 |
| 20260506105154 | 12 | 341 | 3.2 | 3.2 | 0.00 | 0.00 | 0.00 | 92 | 1007.2 |
| 20260506104652 | 12 | 324 | 0.0 | 1.6 | 0.00 | 0.00 | 0.00 | 92 | 1007.3 |
| 20260506104149 | 12 | 325 | 1.6 | 3.2 | 0.00 | 0.00 | 0.00 | 93 | 1007.2 |
| 20260506103647 | 11 | 328 | 3.2 | 3.2 | 0.00 | 0.00 | 0.00 | 93 | 1007.1 |
| 20260506103143 | 11 | 332 | 3.2 | 3.2 | 0.00 | 0.00 | 0.00 | 93 | 1007.0 |
| 20260506102642 | 11 | 353 | 3.2 | 4.8 | 0.00 | 0.00 | 0.00 | 92 | 1007.1 |
| 20260506102139 | 11 | 320 | 3.2 | 4.8 | 0.00 | 0.00 | 0.00 | 93 | 1007.3 |
| 20260506101635 | 11 | 332 | 3.2 | 3.2 | 0.00 | 0.00 | 0.00 | 93 | 1007.0 |
| 20260506101132 | 11 | 317 | 1.6 | 3.2 | 0.00 | 0.00 | 0.00 | 93 | 1007.0 |
| 20260506100631 | 11 | 336 | 1.6 | 1.6 | 0.00 | 0.00 | 0.00 | 94 | 1006.8 |
| 20260506100128 | 11 | 328 | 1.6 | 1.6 | 0.00 | 0.00 | 0.00 | 94 | 1006.9 |
| 20260506095627 | 10 | 311 | 0.0 | 1.6 | 0.00 | 0.00 | 0.00 | 94 | 1007.0 |
| 20260506095123 | 10 | 295 | 1.6 | 3.2 | 0.00 | 0.00 | 0.00 | 94 | 1007.2 |
| 20260506094621 | 10 | 319 | 0.0 | 1.6 | 0.00 | 0.00 | 0.00 | 94 | 1007.1 |
| 20260506094118 | 10 | 314 | 0.0 | 0.0 | 0.00 | 0.00 | 0.00 | 94 | 1006.9 |
| 20260506093617 | 10 | 348 | 0.0 | 3.2 | 0.00 | 0.00 | 0.00 | 94 | 1006.8 |
| 20260506093114 | 10 | 313 | 0.0 | 0.0 | 0.00 | 0.00 | 0.00 | 94 | 1006.6 |
| 20260506092612 | 10 | 357 | 4.8 | 4.8 | 0.00 | 0.00 | 0.00 | 93 | 1006.9 |
| 20260506092108 | 11 | 341 | 1.6 | 1.6 | 0.00 | 0.00 | 0.00 | 93 | 1006.8 |
| 20260506091606 | 11 | 319 | 0.0 | 1.6 | 0.00 | 0.00 | 0.00 | 93 | 1006.9 |
| 20260506091103 | 11 | 304 | 1.6 | 1.6 | 0.00 | 0.00 | 0.00 | 92 | 1006.7 |
| 20260506090601 | 11 | 319 | 0.0 | 0.0 | 0.00 | 0.00 | 0.00 | 92 | 1006.9 |
| 20260506090057 | 11 | 322 | 1.6 | 1.6 | 0.00 | 0.00 | 0.00 | 92 | 1006.9 |
| 20260506085554 | 11 | 326 | 1.6 | 3.2 | 0.00 | 0.00 | 0.00 | 92 | 1007.0 |
| 20260506085050 | 11 | 3 | 1.6 | 4.8 | 0.00 | 0.00 | 0.00 | 92 | 1006.9 |
| 20260506084547 | 11 | 328 | 3.2 | 3.2 | 0.00 | 0.00 | 0.00 | 92 | 1006.7 |
| 20260506084044 | 11 | 320 | 1.6 | 1.6 | 0.00 | 0.00 | 0.00 | 92 | 1006.6 |
| 20260506083541 | 11 | 329 | 0.0 | 1.6 | 0.00 | 0.00 | 0.00 | 91 | 1006.8 |
| 20260506083038 | 11 | 321 | 0.0 | 0.0 | 0.00 | 0.00 | 0.00 | 91 | 1006.7 |
| 20260506082535 | 11 | 336 | 1.6 | 1.6 | 0.00 | 0.00 | 0.00 | 90 | 1006.8 |
| 20260506082031 | 11 | 320 | 3.2 | 3.2 | 0.00 | 0.00 | 0.00 | 90 | 1006.6 |
| 20260506081529 | 12 | 298 | 1.6 | 3.2 | 0.00 | 0.00 | 0.00 | 90 | 1006.7 |
| 20260506081026 | 11 | 323 | 1.6 | 4.8 | 0.00 | 0.00 | 0.00 | 89 | 1006.4 |
| 20260506080524 | 12 | 347 | 1.6 | 4.8 | 0.00 | 0.00 | 0.00 | 89 | 1006.7 |
| 20260506073507 | 11 | 256 | 4.8 | 4.8 | 0.00 | 0.00 | 0.00 | 88 | 1006.8 |
| 20260506073004 | 11 | 328 | 3.2 | 3.2 | 0.00 | 0.00 | 0.00 | 88 | 1006.5 |
| 20260506072501 | 11 | 325 | 0.0 | 1.6 | 0.00 | 0.00 | 0.00 | 88 | 1006.5 |
| 20260506071959 | 11 | 347 | 1.6 | 3.2 | 0.00 | 0.00 | 0.00 | 89 | 1006.5 |
| 20260506071457 | 11 | 338 | 3.2 | 4.8 | 0.00 | 0.00 | 0.00 | 89 | 1006.2 |
| 20260506070954 | 11 | 321 | 1.6 | 1.6 | 0.00 | 0.00 | 0.00 | 89 | 1006.5 |
| 20260506070451 | 11 | 321 | 0.0 | 1.6 | 0.00 | 0.00 | 0.00 | 89 | 1006.4 |
| 20260506062428 | 11 | 354 | 4.8 | 8.0 | 0.00 | 0.00 | 0.00 | 89 | 1006.2 |
| 20260506061924 | 11 | 337 | 3.2 | 11.3 | 0.00 | 0.00 | 0.00 | 88 | 1006.3 |
| 20260506061421 | 11 | 307 | 6.4 | 8.0 | 0.00 | 0.00 | 0.00 | 88 | 1006.2 |
| 20260506060919 | 11 | 241 | 4.8 | 4.8 | 0.00 | 0.00 | 0.00 | 88 | 1006.2 |
| 20260506060417 | 11 | 354 | 1.6 | 3.2 | 0.00 | 0.00 | 0.00 | 87 | 1006.1 |
| 20260506051348 | 12 | 46 | 4.8 | 9.7 | 0.00 | 0.00 | 0.00 | 84 | 1006.2 |
| 20260506050846 | 12 | 338 | 0.0 | 1.6 | 0.00 | 0.00 | 0.00 | 85 | 1006.3 |
| 20260506050343 | 12 | 336 | 0.0 | 1.6 | 0.00 | 0.00 | 0.00 | 85 | 1006.2 |
| 20260506044833 | 12 | 310 | 4.8 | 4.8 | 0.00 | 0.00 | 0.00 | 85 | 1006.4 |
| 20260506044331 | 12 | 310 | 0.0 | 0.0 | 0.00 | 0.00 | 0.00 | 85 | 1006.4 |
| 20260506043828 | 12 | 350 | 1.6 | 3.2 | 0.00 | 0.00 | 0.00 | 85 | 1006.2 |
| 20260506043326 | 12 | 41 | 3.2 | 8.0 | 0.00 | 0.00 | 0.00 | 84 | 1006.2 |
| 20260506042824 | 12 | 34 | 3.2 | 3.2 | 0.00 | 0.00 | 0.00 | 84 | 1006.1 |
| 20260506042323 | 12 | 319 | 0.0 | 1.6 | 0.00 | 0.00 | 0.00 | 84 | 1006.3 |
| 20260506041821 | 12 | 333 | 3.2 | 4.8 | 0.00 | 0.00 | 0.00 | 84 | 1005.9 |
| 20260506041317 | 12 | 353 | 4.8 | 8.0 | 0.00 | 0.00 | 0.00 | 84 | 1006.1 |
| 20260506040815 | 12 | 336 | 1.6 | 3.2 | 0.00 | 0.00 | 0.00 | 84 | 1006.2 |
| 20260506040312 | 12 | 323 | 1.6 | 3.2 | 0.00 | 0.00 | 0.00 | 84 | 1005.9 |
| 20260506035808 | 13 | 350 | 1.6 | 3.2 | 0.00 | 0.00 | 0.00 | 84 | 1005.9 |
| 20260506035306 | 13 | 315 | 1.6 | 3.2 | 0.00 | 0.00 | 0.00 | 84 | 1006.0 |
| 20260506034803 | 12 | 309 | 3.2 | 4.8 | 0.00 | 0.00 | 0.00 | 84 | 1006.1 |
| 20260506034300 | 12 | 316 | 1.6 | 1.6 | 0.00 | 0.00 | 0.00 | 84 | 1005.9 |
| 20260506033757 | 12 | 327 | 3.2 | 3.2 | 0.00 | 0.00 | 0.00 | 84 | 1005.9 |
| 20260506033253 | 12 | 325 | 1.6 | 3.2 | 0.00 | 0.00 | 0.00 | 84 | 1005.9 |
| 20260506032750 | 12 | 314 | 1.6 | 1.6 | 0.00 | 0.00 | 0.00 | 84 | 1006.1 |
| 20260506032247 | 12 | 326 | 3.2 | 3.2 | 0.00 | 0.00 | 0.00 | 85 | 1005.9 |
| 20260506031744 | 12 | 314 | 0.0 | 0.0 | 0.00 | 0.00 | 0.00 | 86 | 1005.9 |
| 20260506031241 | 12 | 311 | 1.6 | 1.6 | 0.00 | 0.00 | 0.00 | 86 | 1005.8 |
| 20260506030739 | 12 | 320 | 1.6 | 1.6 | 0.00 | 0.00 | 0.00 | 86 | 1006.0 |
| 20260506030237 | 12 | 311 | 1.6 | 3.2 | 0.00 | 0.00 | 0.00 | 86 | 1006.1 |
| 20260506025733 | 12 | 311 | 0.0 | 1.6 | 0.00 | 0.00 | 0.00 | 85 | 1006.1 |
| 20260506025230 | 12 | 310 | 0.0 | 1.6 | 0.00 | 0.00 | 0.00 | 85 | 1006.0 |
| 20260506024727 | 12 | 314 | 0.0 | 0.0 | 0.00 | 0.00 | 0.00 | 84 | 1006.1 |
| 20260506024224 | 12 | 314 | 0.0 | 0.0 | 0.00 | 0.00 | 0.00 | 84 | 1006.2 |
| 20260506023720 | 12 | 308 | 0.0 | 1.6 | 0.00 | 0.00 | 0.00 | 84 | 1006.1 |
| 20260506023217 | 12 | 311 | 1.6 | 1.6 | 0.00 | 0.00 | 0.00 | 84 | 1005.8 |
| 20260506022714 | 12 | 311 | 0.0 | 0.0 | 0.00 | 0.00 | 0.00 | 83 | 1006.0 |
| 20260506022212 | 13 | 311 | 0.0 | 0.0 | 0.00 | 0.00 | 0.00 | 82 | 1006.2 |
| 20260506021710 | 13 | 314 | 0.0 | 0.0 | 0.00 | 0.00 | 0.00 | 81 | 1006.1 |
| 20260506021206 | 13 | 308 | 0.0 | 0.0 | 0.00 | 0.00 | 0.00 | 81 | 1006.4 |
| 20260506020703 | 13 | 326 | 1.6 | 1.6 | 0.00 | 0.00 | 0.00 | 81 | 1006.3 |
| 20260506020201 | 13 | 304 | 1.6 | 1.6 | 0.00 | 0.00 | 0.00 | 81 | 1006.1 |
| 20260506015658 | 13 | 309 | 1.6 | 1.6 | 0.00 | 0.00 | 0.00 | 81 | 1006.2 |
| 20260506015156 | 13 | 310 | 1.6 | 1.6 | 0.00 | 0.00 | 0.00 | 80 | 1006.1 |
| 20260506014653 | 13 | 310 | 0.0 | 1.6 | 0.00 | 0.00 | 0.00 | 80 | 1006.2 |
| 20260506014148 | 14 | 308 | 1.6 | 1.6 | 0.00 | 0.00 | 0.00 | 79 | 1006.4 |
| 20260506013646 | 14 | 311 | 1.6 | 1.6 | 0.00 | 0.00 | 0.00 | 79 | 1006.1 |
| 20260506013143 | 14 | 310 | 1.6 | 1.6 | 0.00 | 0.00 | 0.00 | 78 | 1006.0 |
| 20260506012639 | 14 | 320 | 0.0 | 1.6 | 0.00 | 0.00 | 0.00 | 78 | 1006.4 |
| 20260506012136 | 14 | 313 | 0.0 | 0.0 | 0.00 | 0.00 | 0.00 | 78 | 1006.2 |
| 20260506011634 | 15 | 307 | 3.2 | 3.2 | 0.00 | 0.00 | 0.00 | 78 | 1006.2 |
| 20260506011130 | 15 | 309 | 0.0 | 1.6 | 0.00 | 0.00 | 0.00 | 77 | 1005.8 |
| 20260506010629 | 15 | 313 | 0.0 | 1.6 | 0.00 | 0.00 | 0.00 | 77 | 1005.9 |
| 20260506010125 | 15 | 298 | 3.2 | 3.2 | 0.00 | 0.00 | 0.00 | 77 | 1005.8 |
| 20260506005622 | 15 | 308 | 1.6 | 1.6 | 0.00 | 0.00 | 0.00 | 76 | 1005.7 |
| 20260506005119 | 16 | 300 | 1.6 | 3.2 | 0.00 | 0.00 | 0.00 | 75 | 1005.9 |
| 20260506004615 | 16 | 313 | 0.0 | 0.0 | 0.00 | 0.00 | 0.00 | 73 | 1005.8 |
| 20260506004112 | 16 | 319 | 1.6 | 1.6 | 0.00 | 0.00 | 0.00 | 73 | 1005.6 |
| 20260506003609 | 16 | 316 | 0.0 | 0.0 | 0.00 | 0.00 | 0.00 | 73 | 1005.6 |
| 20260506003105 | 16 | 309 | 1.6 | 1.6 | 0.00 | 0.00 | 0.00 | 73 | 1005.6 |
| 20260506002601 | 16 | 308 | 1.6 | 1.6 | 0.00 | 0.00 | 0.00 | 73 | 1005.5 |
| 20260506002057 | 16 | 312 | 1.6 | 1.6 | 0.00 | 0.00 | 0.00 | 71 | 1005.5 |
| 20260506001553 | 16 | 319 | 1.6 | 3.2 | 0.00 | 0.00 | 0.00 | 71 | 1005.4 |
| 20260506001051 | 17 | 321 | 0.0 | 1.6 | 0.00 | 0.00 | 0.00 | 70 | 1005.2 |
| 20260506000548 | 17 | 343 | 1.6 | 3.2 | 0.00 | 0.00 | 0.00 | 70 | 1005.0 |
| 20260506000045 | 17 | 338 | 3.2 | 4.8 | 0.00 | 0.00 | 0.00 | 71 | 1004.7 |
| 20260505235543 | 16 | 306 | 3.2 | 3.2 | 0.00 | 0.00 | 0.00 | 72 | 1004.4 |
| 20260505235040 | 16 | 313 | 0.0 | 0.0 | 0.00 | 0.00 | 0.00 | 73 | 1004.3 |
| 20260505234537 | 16 | 308 | 0.0 | 0.0 | 0.00 | 0.00 | 0.00 | 73 | 1004.3 |
| 20260505234033 | 17 | 308 | 0.0 | 0.0 | 0.00 | 0.00 | 0.00 | 72 | 1004.4 |
| 20260505233531 | 17 | 304 | 0.0 | 0.0 | 0.00 | 0.00 | 0.00 | 72 | 1004.3 |
| 20260505233028 | 17 | 310 | 0.0 | 0.0 | 0.00 | 0.00 | 0.00 | 70 | 1004.2 |
| 20260505232526 | 16 | 308 | 0.0 | 0.0 | 0.00 | 0.00 | 0.00 | 71 | 1004.3 |
| 20260505232023 | 16 | 309 | 0.0 | 1.6 | 0.00 | 0.00 | 0.00 | 73 | 1004.6 |
| 20260505231520 | 16 | 309 | 0.0 | 1.6 | 0.00 | 0.00 | 0.00 | 74 | 1004.8 |
| 20260505231019 | 16 | 331 | 1.6 | 1.6 | 0.00 | 0.00 | 0.00 | 73 | 1004.7 |
| 20260505230516 | 15 | 287 | 3.2 | 3.2 | 0.00 | 0.00 | 0.00 | 75 | 1004.7 |
| 20260505230012 | 15 | 291 | 3.2 | 3.2 | 0.00 | 0.00 | 0.00 | 76 | 1003.9 |
| 20260505225509 | 15 | 313 | 4.8 | 8.0 | 0.00 | 0.00 | 0.00 | 75 | 1003.1 |
| 20260505225005 | 15 | 71 | 9.7 | 14.5 | 0.00 | 0.00 | 0.00 | 75 | 1003.1 |
| 20260505224502 | 15 | 30 | 9.7 | 14.5 | 0.00 | 0.00 | 0.00 | 75 | 1002.9 |
| 20260505223959 | 15 | 294 | 9.7 | 14.5 | 0.00 | 0.00 | 0.00 | 76 | 1002.7 |
| 20260505223456 | 15 | 63 | 4.8 | 16.1 | 0.00 | 0.00 | 0.00 | 76 | 1002.7 |
| 20260505222953 | 15 | 266 | 9.7 | 14.5 | 0.00 | 0.00 | 0.00 | 75 | 1002.8 |
| 20260505222449 | 15 | 27 | 16.1 | 17.7 | 0.00 | 0.00 | 0.00 | 75 | 1002.6 |
| 20260505221945 | 15 | 65 | 9.7 | 12.9 | 0.00 | 0.00 | 0.00 | 75 | 1002.6 |
| 20260505221442 | 15 | 74 | 12.9 | 27.4 | 0.00 | 0.00 | 0.00 | 75 | 1002.7 |
| 20260505220939 | 15 | 81 | 20.9 | 29.0 | 0.00 | 0.00 | 0.00 | 75 | 1002.5 |
| 20260505220436 | 15 | 284 | 8.0 | 11.3 | 0.00 | 0.00 | 0.00 | 75 | 1002.6 |
| 20260505215934 | 15 | 7 | 4.8 | 8.0 | 0.00 | 0.00 | 0.00 | 75 | 1002.3 |
| 20260505215432 | 15 | 60 | 4.8 | 8.0 | 0.00 | 0.00 | 0.00 | 76 | 1002.4 |
| 20260505214929 | 15 | 75 | 6.4 | 12.9 | 0.00 | 0.00 | 0.00 | 75 | 1002.4 |
| 20260505214427 | 15 | 52 | 9.7 | 14.5 | 0.00 | 0.00 | 0.00 | 76 | 1002.7 |
| 20260505213924 | 15 | 35 | 8.0 | 11.3 | 0.00 | 0.00 | 0.00 | 77 | 1002.7 |
| 20260505213422 | 15 | 307 | 4.8 | 4.8 | 0.00 | 0.00 | 0.00 | 76 | 1002.4 |
| 20260505212918 | 15 | 349 | 4.8 | 4.8 | 0.00 | 0.00 | 0.00 | 78 | 1002.4 |
| 20260505212415 | 14 | 19 | 6.4 | 9.7 | 0.00 | 0.00 | 0.00 | 78 | 1002.3 |
| 20260505211911 | 14 | 27 | 9.7 | 12.9 | 0.00 | 0.00 | 0.00 | 78 | 1002.2 |
| 20260505211409 | 13 | 28 | 12.9 | 22.5 | 0.00 | 0.00 | 0.00 | 79 | 1002.4 |
| 20260505210905 | 14 | 325 | 1.6 | 1.6 | 0.00 | 0.00 | 0.00 | 79 | 1002.2 |
| 20260505210402 | 15 | 307 | 1.6 | 3.2 | 0.00 | 0.00 | 0.00 | 78 | 1002.3 |
| 20260505205859 | 15 | 24 | 4.8 | 8.0 | 0.00 | 0.00 | 0.00 | 77 | 1002.4 |
| 20260505205357 | 15 | 329 | 6.4 | 9.7 | 0.00 | 0.00 | 0.00 | 77 | 1002.3 |
| 20260505204854 | 15 | 19 | 11.3 | 14.5 | 0.00 | 0.00 | 0.00 | 77 | 1002.1 |
| 20260505204352 | 15 | 242 | 6.4 | 9.7 | 0.00 | 0.00 | 0.00 | 77 | 1002.2 |
| 20260505203849 | 15 | 85 | 14.5 | 22.5 | 0.00 | 0.00 | 0.00 | 77 | 1002.4 |
| 20260505203345 | 15 | 20 | 11.3 | 12.9 | 0.00 | 0.00 | 0.00 | 76 | 1002.7 |
| 20260505202842 | 15 | 79 | 3.2 | 4.8 | 0.00 | 0.00 | 0.00 | 75 | 1002.5 |
| 20260505202337 | 15 | 14 | 4.8 | 4.8 | 0.00 | 0.00 | 0.00 | 76 | 1002.6 |
| 20260505201834 | 15 | 0 | 9.7 | 20.9 | 0.00 | 0.00 | 0.00 | 76 | 1002.3 |
| 20260505201332 | 15 | 300 | 8.0 | 9.7 | 0.00 | 0.00 | 0.00 | 76 | 1002.4 |
| 20260505200830 | 15 | 352 | 6.4 | 8.0 | 0.00 | 0.00 | 0.00 | 76 | 1002.5 |
| 20260505200327 | 15 | 61 | 11.3 | 17.7 | 0.00 | 0.00 | 0.00 | 75 | 1002.6 |
| 20260505195822 | 15 | 312 | 9.7 | 12.9 | 0.00 | 0.00 | 0.00 | 76 | 1002.8 |
| 20260505195319 | 15 | 59 | 11.3 | 16.1 | 0.00 | 0.00 | 0.00 | 76 | 1002.9 |
| 20260505194817 | 16 | 39 | 9.7 | 12.9 | 0.00 | 0.00 | 0.00 | 75 | 1002.8 |
| 20260505194314 | 16 | 16 | 6.4 | 11.3 | 0.00 | 0.00 | 0.00 | 75 | 1002.9 |
| 20260505193809 | 16 | 342 | 9.7 | 14.5 | 0.00 | 0.00 | 0.00 | 76 | 1002.8 |
| 20260505193307 | 16 | 323 | 3.2 | 4.8 | 0.00 | 0.00 | 0.00 | 75 | 1003.0 |
| 20260505192805 | 16 | 6 | 4.8 | 4.8 | 0.00 | 0.00 | 0.00 | 76 | 1003.1 |
| 20260505192305 | 16 | 290 | 3.2 | 4.8 | 0.00 | 0.00 | 0.00 | 75 | 1003.3 |
| 20260505191800 | 15 | 6 | 3.2 | 4.8 | 0.00 | 0.00 | 0.00 | 76 | 1003.3 |
| 20260505191258 | 15 | 287 | 9.7 | 12.9 | 0.00 | 0.00 | 0.00 | 78 | 1003.4 |
| 20260505190755 | 15 | 293 | 8.0 | 14.5 | 0.00 | 0.00 | 0.00 | 78 | 1003.5 |
| 20260505190250 | 15 | 14 | 8.0 | 16.1 | 0.00 | 0.00 | 0.00 | 76 | 1003.7 |
| 20260505185746 | 16 | 41 | 12.9 | 22.5 | 0.00 | 0.00 | 0.00 | 75 | 1003.6 |
| 20260505185243 | 16 | 333 | 4.8 | 8.0 | 0.00 | 0.00 | 0.00 | 73 | 1003.6 |
| 20260505184739 | 16 | 5 | 6.4 | 8.0 | 0.00 | 0.00 | 0.00 | 73 | 1003.6 |
| 20260505184236 | 17 | 31 | 4.8 | 9.7 | 0.00 | 0.00 | 0.00 | 71 | 1003.7 |
| 20260505183733 | 17 | 293 | 6.4 | 8.0 | 0.00 | 0.00 | 0.00 | 70 | 1003.7 |
| 20260505183230 | 17 | 19 | 6.4 | 11.3 | 0.00 | 0.00 | 0.00 | 69 | 1003.5 |
| 20260505182727 | 17 | 51 | 11.3 | 17.7 | 0.00 | 0.00 | 0.00 | 71 | 1003.7 |
| 20260505182224 | 16 | 269 | 4.8 | 9.7 | 0.00 | 0.00 | 0.00 | 72 | 1003.6 |
| 20260505181720 | 16 | 0 | 4.8 | 8.0 | 0.00 | 0.00 | 0.00 | 74 | 1003.7 |
| 20260505181218 | 16 | 43 | 9.7 | 14.5 | 0.00 | 0.00 | 0.00 | 75 | 1004.0 |
| 20260505180714 | 16 | 30 | 4.8 | 8.0 | 0.00 | 0.00 | 0.00 | 75 | 1003.8 |
| 20260505180211 | 15 | 354 | 4.8 | 9.7 | 0.00 | 0.00 | 0.00 | 75 | 1004.2 |
| 20260505175707 | 15 | 337 | 4.8 | 8.0 | 0.00 | 0.00 | 0.00 | 75 | 1004.1 |
| 20260505175203 | 16 | 277 | 6.4 | 9.7 | 0.00 | 0.00 | 0.00 | 75 | 1004.0 |
| 20260505174700 | 16 | 346 | 1.6 | 3.2 | 0.00 | 0.00 | 0.00 | 74 | 1004.4 |
| 20260505174155 | 16 | 1 | 6.4 | 9.7 | 0.00 | 0.00 | 0.00 | 73 | 1004.2 |
| 20260505173653 | 17 | 229 | 9.7 | 14.5 | 0.00 | 0.00 | 0.00 | 71 | 1004.5 |
| 20260505173150 | 16 | 320 | 4.8 | 8.0 | 0.00 | 0.00 | 0.00 | 74 | 1004.4 |
| 20260505172647 | 16 | 340 | 1.6 | 1.6 | 0.00 | 0.00 | 0.00 | 73 | 1004.5 |
| 20260505172144 | 16 | 33 | 8.0 | 11.3 | 0.00 | 0.00 | 0.00 | 73 | 1004.6 |
| 20260505171644 | 16 | 338 | 6.4 | 9.7 | 0.00 | 0.00 | 0.00 | 73 | 1004.6 |
| 20260505171141 | 16 | 299 | 4.8 | 4.8 | 0.00 | 0.00 | 0.00 | 73 | 1004.4 |
| 20260505170638 | 17 | 48 | 8.0 | 12.9 | 0.00 | 0.00 | 0.00 | 71 | 1004.7 |
| 20260505170135 | 17 | 338 | 6.4 | 11.3 | 0.00 | 0.00 | 0.00 | 71 | 1005.1 |
| 20260505165629 | 18 | 28 | 3.2 | 3.2 | 0.00 | 0.00 | 0.00 | 68 | 1005.1 |
| 20260505165126 | 17 | 64 | 4.8 | 8.0 | 0.00 | 0.00 | 0.00 | 69 | 1005.2 |
| 20260505164621 | 18 | 270 | 6.4 | 11.3 | 0.00 | 0.00 | 0.00 | 67 | 1004.9 |
| 20260505164119 | 18 | 312 | 3.2 | 3.2 | 0.00 | 0.00 | 0.00 | 68 | 1004.9 |
| 20260505163617 | 17 | 214 | 1.6 | 3.2 | 0.00 | 0.00 | 0.00 | 70 | 1005.0 |
| 20260505163114 | 17 | 318 | 0.0 | 1.6 | 0.00 | 0.00 | 0.00 | 70 | 1005.3 |
| 20260505162612 | 17 | 354 | 3.2 | 4.8 | 0.00 | 0.00 | 0.00 | 71 | 1005.3 |
| 20260505162110 | 17 | 303 | 1.6 | 3.2 | 0.00 | 0.00 | 0.00 | 71 | 1005.4 |
| 20260505161606 | 17 | 310 | 1.6 | 1.6 | 0.00 | 0.00 | 0.00 | 72 | 1005.4 |
| 20260505161104 | 17 | 335 | 1.6 | 1.6 | 0.00 | 0.00 | 0.00 | 71 | 1005.6 |
| 20260505160601 | 17 | 343 | 6.4 | 9.7 | 0.00 | 0.00 | 0.00 | 70 | 1005.7 |
| 20260505153038 | 18 | 310 | 3.2 | 3.2 | 0.00 | 0.00 | 0.00 | 69 | 1006.0 |
| 20260505152535 | 18 | 315 | 3.2 | 3.2 | 0.00 | 0.00 | 0.00 | 70 | 1006.1 |
| 20260505152030 | 18 | 290 | 3.2 | 3.2 | 0.00 | 0.00 | 0.00 | 68 | 1006.3 |
| 20260505151525 | 18 | 308 | 3.2 | 3.2 | 0.00 | 0.00 | 0.00 | 69 | 1006.0 |
| 20260505151023 | 17 | 302 | 3.2 | 3.2 | 0.00 | 0.00 | 0.00 | 69 | 1006.2 |
| 20260505150519 | 17 | 331 | 3.2 | 3.2 | 0.00 | 0.00 | 0.00 | 72 | 1006.1 |
| 20260505140444 | 16 | 316 | 4.8 | 4.8 | 0.00 | 0.00 | 0.00 | 72 | 1006.1 |